Temperature
16 16 16 16 16 16 16 16 16 16 16 16 16 16 16 16 16 16 16 16 16 16 16 16 16 15 15 15 15 16 16 16 16 16 15 15 15 15 15 15 15 15 15
17 16 16 16 16 16 16 16 16 16 16 16 16 16 16 16 16 16 16 16 16 16 16 16 15 15 15 15 15 15 16 16 16 15 15 15 15 15 15 15 15 15 15
17 16 16 16 16 16 16 16 16 16 16 16 16 16 16 16 16 16 16 16 16 16 16 16 15 15 16 16 15 15 15 15 15 15 15 15 15 15 15 15 15 15 15
16 16 16 16 16 16 16 16 16 16 16 16 16 16 16 16 16 16 16 16 16 16 16 16 15 15 15 15 15 15 15 15 15 15 15 15 15 15 15 15 15 15 15
16 16 15 15 15 16 16 16 16 16 16 16 16 16 16 16 16 16 16 16 16 16 15 15 15 15 15 15 15 15 15 15 15 15 15 15 15 14 14 14 14 14 14
16 16 15 15 15 15 15 16 16 16 16 16 15 15 15 16 16 16 16 16 16 16 15 15 15 15 15 15 15 15 15 15 15 15 15 15 15 14 14 14 14 14 14
15 15 15 15 15 15 15 15 15 16 16 15 15 15 15 15 15 15 15 15 15 15 15 15 15 15 15 15 15 15 15 14 14 14 15 14 14 14 14 14 14 14 14
15 15 15 15 15 15 15 15 15 15 15 15 15 15 15 15 15 15 15 15 15 15 15 15 15 15 15 15 15 15 15 14 14 14 14 14 14 14 14 14 14 14 14
14 14 14 14 15 15 15 15 15 15 15 15 15 15 15 15 15 15 15 15 15 15 15 15 15 15 15 15 15 14 14 14 14 14 14 14 14 14 14 14 14 14 14
14 14 14 14 14 14 15 15 15 15 15 15 15 15 15 15 15 15 15 15 15 15 15 15 14 15 14 14 14 14 14 14 14 14 14 14 14 13 14 14 14 14 14
14 14 14 14 14 14 14 14 15 15 15 15 15 15 15 15 15 15 15 15 15 14 14 14 14 14 14 14 14 14 14 14 14 14 14 13 13 13 13 14 14 14 13
14 14 14 14 14 14 14 14 14 14 14 14 14 14 14 14 14 14 14 14 14 14 14 14 14 14 14 14 14 14 14 13 13 13 13 13 13 13 13 13 13 13 13
14 14 14 14 14 14 14 14 14 14 14 14 14 14 14 14 14 14 14 14 14 14 14 14 14 13 14 13 13 13 13 13 13 13 13 13 13 13 13 13 13 13 13
13 13 13 13 13 13 13 13 14 14 14 14 14 14 14 14 14 14 14 14 14 14 14 13 13 13 13 13 13 13 13 13 13 13 13 13 13 13 13 13 13 13 13
13 13 13 13 13 13 13 13 13 13 13 13 13 13 13 13 13 13 13 13 13 13 13 13 13 13 13 13 13 13 13 13 13 13 13 13 13 13 13 13 13 13 13
13 13 13 13 13 13 13 13 13 13 13 13 13 13 13 13 13 13 13 13 13 13 13 13 13 13 13 13 13 12 12 12 12 12 12 12 13 12 12 12 12 12 12
13 13 13 12 12 12 12 13 13 12 12 12 12 12 12 12 12 13 13 13 13 13 13 13 12 12 12 12 12 12 12 12 12 12 12 12 12 12 12 12 12 12 12
13 13 12 12 12 12 12 12 12 12 12 12 12 12 12 12 12 12 12 12 12 12 12 12 12 12 12 12 12 12 12 12 12 12 12 12 12 12 12 12 12 12 12
12 12 12 12 12 12 12 12 12 12 12 11 11 11 12 12 12 12 12 12 12 12 12 12 12 12 12 12 12 12 12 11 12 12 12 12 12 12 12 12 12 12 12
12 12 12 12 12 11 11 11 11 11 11 11 11 11 11 11 11 11 11 12 12 12 12 12 12 12 11 11 11 11 11 11 11 11 11 11 11 11 11 12 12 12 12
11 11 11 11 11 11 11 11 11 11 11 11 10 10 11 11 11 11 11 11 11 11 11 11 11 11 11 11 11 11 11 11 11 11 11 11 11 11 11 11 11 11 11
11 11 11 11 11 11 11 11 11 10 10 10 10 10 10 10 10 11 11 11 11 11 11 11 11 11 11 11 11 11 10 10 10 10 11 11 11 11 11 11 11 11 11
11 11 11 11 11 11 10 10 10 10 10 10 10 10 10 10 10 10 10 10 10 10 11 11 11 11 11 11 11 11 10 10 10 10 10 10 10 10 10 10 10 10 10
11 10 10 10 10 10 10 10 10 10 9 9 9 10 10 10 10 10 10 10 10 10 10 10 10 10 11 10 10 10 11 11 10 10 10 10 10 10 10 10 10 10 10
10 10 10 10 10 10 9 9 9 9 9 9 9 9 9 9 9 9 9 9 10 10 10 10 10 10 10 10 10 10 10 10 10 10 10 10 10 10 10 10 10 9 9
9 9 9 9 9 9 9 9 9 9 9 9 9 9 9 9 9 9 9 9 9 9 9 9 10 10 10 10 10 10 10 10 10 10 10 9 10 9 9 9 9 9 9
Wind_Speed
3 5 9 10 11 11 11 11 11 12 12 13 14 14 14 14 14 13 13 12 12 12 12 12 13 13 14 14 14 14 14 14 14 14 14 14 14 14 14 14 13 14 15
6 7 10 11 11 11 11 11 11 11 11 12 13 13 13 13 13 13 12 12 12 12 12 12 12 13 13 13 14 14 14 14 13 13 12 12 13 13 13 13 12 12 14
6 8 10 11 11 11 10 10 10 10 11 11 12 12 13 12 12 12 12 12 12 12 12 12 12 13 13 13 13 13 13 13 12 12 11 10 11 12 13 12 12 13 13
7 8 9 10 10 10 10 10 10 9 10 10 11 11 12 12 12 11 11 11 11 11 11 11 12 12 12 12 12 12 12 12 11 11 10 9 9 11 11 12 12 12 12
6 7 8 11 10 9 9 9 9 9 9 9 10 10 10 11 11 11 11 11 11 11 11 11 11 11 11 11 11 11 11 11 11 10 10 9 8 10 11 11 11 11 11
5 7 8 10 10 9 8 8 8 8 8 8 9 9 9 10 10 11 11 11 11 11 11 11 11 10 10 10 11 11 10 10 10 10 9 8 7 8 10 10 10 11 11
5 6 7 9 9 9 8 7 7 7 8 8 7 8 8 8 9 10 11 11 11 11 11 11 10 10 10 10 10 11 11 10 10 9 8 7 7 8 9 9 9 10 11
6 5 6 8 8 8 7 7 7 7 7 7 7 7 7 8 9 9 10 10 11 11 11 10 10 10 10 10 10 10 10 9 8 7 6 6 6 8 9 9 9 10 11
5 4 5 6 7 8 7 6 6 7 6 6 6 6 6 7 8 8 9 10 11 11 11 11 10 10 10 10 10 10 10 9 8 6 5 5 6 7 8 8 8 9 9
4 3 3 4 5 6 6 6 6 6 6 6 6 6 6 6 7 7 8 9 10 11 11 11 11 10 10 9 10 10 9 8 7 5 4 5 5 6 7 7 7 8 8
3 2 3 3 4 5 6 6 6 6 6 6 5 6 5 5 5 6 7 8 8 9 10 11 11 11 9 9 9 10 8 7 6 4 3 4 5 5 6 6 7 7 8
5 3 3 3 3 4 5 5 5 5 5 5 5 5 5 5 5 5 6 7 7 8 9 10 11 10 9 8 8 8 7 6 5 3 3 4 5 5 6 6 7 7 7
5 4 3 3 3 4 3 4 4 4 4 5 5 6 5 5 4 5 5 5 6 7 6 8 9 8 8 7 7 7 7 6 4 3 3 4 4 5 5 6 6 6 6
5 5 4 4 3 4 4 4 4 4 4 4 5 6 5 4 4 4 4 4 5 6 6 6 6 7 7 8 7 7 6 5 4 3 2 3 4 4 5 6 6 6 6
5 5 4 4 5 4 4 3 4 4 4 5 5 6 7 5 4 4 4 4 5 6 6 6 6 6 6 6 6 6 5 5 4 4 3 3 4 4 4 5 5 5 6
6 6 4 5 5 5 4 4 4 5 5 6 6 7 8 7 5 4 3 4 4 6 7 7 6 5 4 5 4 4 5 5 4 4 3 2 3 3 3 4 4 5 5
6 5 5 5 4 5 5 5 4 4 5 5 6 7 8 8 7 5 3 3 4 6 7 6 6 5 4 4 3 3 4 4 4 4 4 3 3 3 3 3 3 4 4
5 5 5 5 4 5 4 4 4 4 5 5 6 7 8 8 8 6 4 3 5 6 6 4 4 3 3 3 3 2 2 3 4 4 4 3 3 3 3 3 3 3 3
6 6 5 4 5 5 4 3 4 4 4 4 5 6 7 8 8 7 4 4 6 5 4 4 3 3 3 4 3 2 2 2 3 3 3 3 3 4 4 4 4 3 3
5 5 5 4 4 4 3 3 2 3 3 3 4 5 6 6 7 7 5 5 6 4 3 3 4 3 3 4 4 3 2 1 2 2 2 2 3 4 4 4 3 3 3
4 4 5 4 4 4 3 3 3 3 3 3 3 4 5 6 6 6 4 4 4 4 5 5 4 4 3 3 3 3 2 2 2 1 2 2 2 3 4 4 4 3 3
5 5 5 5 5 5 5 4 3 3 2 3 2 3 4 5 6 6 5 4 4 3 4 5 4 3 3 3 3 3 2 1 1 0 1 1 1 2 3 3 4 4 3
5 6 6 6 5 5 5 4 4 3 2 2 2 2 3 4 5 5 5 4 4 4 4 4 5 6 4 2 2 3 4 4 1 0 0 1 1 1 2 3 3 3 3
6 5 5 5 5 5 6 6 7 5 4 4 3 2 2 4 4 4 5 5 4 3 3 4 4 4 6 4 2 1 1 3 3 2 1 0 1 1 1 2 2 2 3
5 5 5 5 5 5 6 7 7 5 4 3 3 3 2 3 4 4 4 4 4 3 3 3 3 3 4 4 3 2 2 2 2 3 2 1 1 0 1 1 2 2 2
3 3 4 5 5 6 7 7 8 7 5 5 4 4 3 2 2 3 4 4 3 3 3 3 3 3 3 4 3 3 3 3 2 3 3 2 1 0 0 1 1 1 1
Wind_Direction
186 184 169 155 148 143 137 132 131 129 130 132 130 129 128 128 128 128 124 122 118 114 113 112 108 106 104 101 98 96 94 92 91 89 87 88 90 90 88 86 83 80 82
162 172 163 156 150 146 141 136 132 131 133 136 137 134 133 133 132 131 129 126 124 120 117 116 112 110 106 103 100 98 96 93 92 89 86 87 91 92 90 89 89 89 86
143 156 156 152 151 149 146 140 136 135 135 140 142 141 139 138 137 135 133 131 128 124 118 116 114 112 109 108 105 102 99 95 92 88 84 87 90 93 93 90 88 90 89
142 145 150 147 147 150 150 146 140 138 138 141 144 146 146 145 143 140 137 135 131 128 123 119 115 114 113 111 109 106 102 98 91 89 81 82 88 95 95 93 89 89 90
136 141 146 147 144 143 146 148 149 145 142 143 146 147 150 152 150 147 143 139 135 132 128 124 119 116 115 114 112 108 105 102 92 89 84 82 86 94 96 93 91 90 91
136 140 148 147 148 144 141 147 153 153 153 149 147 151 152 155 158 155 150 145 141 138 133 129 126 122 120 118 116 112 108 103 95 91 85 82 84 95 99 97 94 93 92
138 139 150 147 149 146 144 147 157 160 159 156 153 157 159 160 160 157 153 149 147 143 139 137 133 131 129 123 119 117 115 108 101 95 90 85 89 97 101 102 98 96 93
143 140 149 153 151 149 148 149 158 164 164 161 160 159 160 158 157 156 157 155 153 151 147 144 139 136 131 126 123 121 121 117 108 98 98 96 99 104 104 100 99 97 95
138 135 138 150 150 152 150 150 154 163 165 165 159 153 150 153 159 159 159 161 160 158 154 150 147 142 135 129 127 126 124 122 113 107 107 112 112 113 110 105 102 102 97
134 136 132 140 141 149 156 158 155 154 160 161 155 143 137 144 153 157 158 162 162 163 161 156 152 149 141 135 132 130 126 122 116 115 119 128 121 118 116 113 111 109 104
152 150 135 140 142 149 157 161 160 156 159 158 151 144 134 135 142 148 151 158 162 164 166 163 157 150 142 136 134 134 128 123 124 121 137 142 135 132 125 123 119 114 109
188 190 167 158 153 150 160 155 158 157 155 154 149 145 138 135 141 145 148 154 160 163 166 165 158 149 138 131 131 132 127 127 126 129 145 147 146 139 129 124 119 116 114
194 190 183 175 163 156 152 152 153 151 150 154 155 152 143 133 130 132 134 145 151 152 149 153 146 140 138 135 130 129 132 132 131 133 137 147 146 142 134 131 128 121 120
190 198 192 182 172 169 161 159 161 156 158 163 168 163 151 139 134 135 134 141 143 143 138 139 137 137 136 138 138 133 134 135 133 139 135 151 156 150 142 137 133 127 122
192 199 200 193 186 175 165 169 169 169 174 177 174 174 168 161 160 152 151 152 153 149 145 142 141 137 134 134 138 138 136 139 138 140 132 142 160 159 152 147 142 138 130
198 199 196 197 189 173 178 180 183 180 180 178 179 181 177 170 165 160 160 157 160 161 157 153 150 146 143 136 133 136 140 142 143 143 131 132 151 158 157 155 149 142 139
197 192 192 194 185 180 182 182 176 177 176 174 181 183 179 174 170 164 167 173 174 167 155 146 142 138 139 139 141 133 129 133 138 142 133 130 141 151 154 156 154 149 145
190 185 191 189 183 185 182 176 173 171 172 177 179 180 181 181 175 167 172 181 174 165 155 154 155 152 153 149 148 148 128 123 126 135 132 128 134 139 138 136 137 135 137
193 186 184 184 183 187 184 173 166 161 164 171 171 174 179 181 179 173 176 177 168 159 160 168 159 155 156 152 145 128 117 121 124 127 123 129 138 141 140 135 127 120 121
189 185 184 182 185 178 167 157 153 150 158 159 166 171 170 177 177 173 170 172 164 162 166 167 157 145 143 144 127 101 85 105 108 118 129 123 136 142 138 129 123 113 104
175 181 184 179 180 167 163 168 174 182 175 169 165 168 168 169 170 168 167 167 167 175 178 172 157 143 128 128 115 97 49 55 89 101 114 115 114 137 129 124 122 112 103
180 188 187 185 176 174 176 172 166 159 159 165 148 146 163 164 167 168 166 175 174 173 171 173 160 147 144 151 138 130 136 15 350 69 113 138 117 125 122 127 124 113 109
187 189 190 189 179 174 166 145 129 113 107 115 134 162 161 163 165 162 162 162 169 174 179 178 170 161 163 167 147 149 157 192 193 310 104 122 117 119 118 121 117 108 108
204 194 187 183 177 173 167 161 155 157 163 178 176 170 154 151 154 158 155 155 161 166 173 180 177 169 163 173 167 124 139 144 153 163 327 48 101 128 146 124 113 103 98
202 191 187 178 178 174 175 174 173 173 164 150 137 134 144 145 140 144 150 150 155 164 173 169 169 164 165 169 167 152 121 89 109 142 170 192 38 340 154 139 113 106 95
195 183 178 177 182 178 179 180 181 174 161 150 151 157 154 146 146 139 140 147 152 151 164 167 168 160 166 164 164 162 157 154 165 149 157 166 182 281 295 135 131 105 98
Height
1509 1511 1514 1517 1519 1521 1523 1525 1526 1528 1529 1530 1532 1533 1535 1536 1537 1538 1540 1541 1542 1543 1544 1545 1545 1546 1547 1548 1548 1549 1550 1550 1551 1552 1552 1553 1553 1554 1554 1554 1555 1555 1555
1508 1511 1513 1516 1519 1521 1523 1524 1526 1528 1529 1531 1532 1533 1535 1536 1537 1539 1540 1541 1542 1543 1544 1545 1546 1547 1548 1549 1550 1550 1551 1552 1552 1553 1554 1554 1555 1555 1556 1556 1556 1557 1557
1507 1510 1513 1516 1518 1520 1522 1524 1526 1528 1529 1530 1532 1533 1535 1536 1538 1539 1540 1541 1542 1543 1545 1546 1547 1548 1549 1550 1550 1551 1552 1553 1554 1554 1555 1556 1556 1557 1557 1558 1558 1558 1558
1507 1510 1512 1515 1518 1520 1522 1524 1526 1527 1529 1530 1532 1533 1535 1536 1538 1539 1540 1542 1543 1544 1545 1546 1547 1548 1549 1550 1551 1552 1553 1554 1555 1556 1556 1557 1557 1558 1559 1559 1559 1559 1560
1507 1510 1512 1515 1517 1519 1521 1523 1525 1527 1528 1530 1532 1533 1535 1536 1538 1539 1540 1542 1543 1544 1545 1546 1548 1549 1550 1551 1552 1553 1554 1555 1556 1557 1557 1558 1559 1559 1560 1560 1560 1561 1561
1507 1509 1512 1514 1516 1518 1520 1522 1524 1526 1528 1529 1531 1533 1534 1536 1537 1539 1540 1542 1543 1544 1546 1547 1548 1549 1550 1551 1553 1554 1555 1556 1557 1558 1559 1559 1560 1560 1561 1561 1561 1562 1562
1506 1509 1511 1513 1515 1517 1519 1521 1523 1525 1527 1528 1530 1532 1534 1535 1537 1538 1540 1542 1543 1544 1546 1547 1548 1549 1551 1552 1553 1554 1555 1557 1558 1558 1559 1560 1561 1561 1561 1562 1562 1562 1563
1506 1508 1510 1512 1514 1516 1518 1520 1522 1523 1525 1527 1529 1531 1533 1534 1536 1538 1539 1541 1543 1544 1545 1547 1548 1550 1551 1552 1553 1554 1556 1557 1558 1559 1560 1560 1561 1562 1562 1562 1563 1563 1564
1505 1507 1509 1511 1513 1515 1516 1518 1520 1522 1524 1526 1528 1530 1531 1533 1535 1537 1539 1540 1542 1544 1545 1547 1548 1549 1551 1552 1553 1555 1556 1557 1558 1559 1560 1561 1561 1562 1562 1563 1563 1564 1564
1504 1506 1507 1509 1511 1513 1515 1517 1519 1520 1522 1524 1526 1528 1530 1532 1534 1536 1538 1539 1541 1543 1545 1546 1548 1549 1550 1552 1553 1554 1556 1557 1558 1559 1560 1561 1562 1562 1563 1563 1564 1564 1564
1502 1504 1506 1508 1509 1511 1513 1515 1517 1519 1521 1523 1525 1527 1529 1531 1533 1534 1536 1538 1540 1542 1544 1545 1547 1548 1550 1551 1553 1554 1555 1557 1558 1559 1560 1561 1562 1562 1563 1563 1564 1564 1564
1500 1502 1504 1506 1508 1509 1511 1513 1515 1517 1519 1521 1523 1525 1527 1529 1531 1533 1535 1537 1539 1541 1543 1544 1546 1548 1549 1551 1552 1554 1555 1556 1558 1559 1560 1561 1561 1562 1563 1563 1563 1564 1564
1498 1500 1502 1504 1505 1507 1509 1511 1513 1515 1517 1519 1521 1523 1525 1527 1529 1531 1533 1535 1537 1539 1541 1543 1545 1547 1548 1550 1551 1553 1554 1556 1557 1558 1559 1560 1561 1562 1562 1563 1563 1564 1564
1495 1497 1499 1501 1503 1505 1507 1508 1510 1512 1514 1516 1518 1520 1522 1524 1526 1529 1531 1533 1535 1538 1540 1542 1544 1546 1547 1549 1551 1552 1553 1555 1556 1557 1558 1560 1560 1561 1562 1563 1563 1563 1564
1492 1495 1497 1499 1500 1502 1504 1506 1508 1510 1512 1514 1516 1518 1520 1522 1524 1526 1529 1532 1534 1536 1538 1540 1543 1544 1546 1548 1549 1551 1553 1554 1555 1556 1558 1559 1560 1561 1561 1562 1563 1563 1563
1489 1492 1494 1495 1497 1499 1501 1503 1505 1507 1509 1511 1513 1515 1517 1520 1522 1524 1527 1529 1532 1534 1536 1538 1541 1543 1545 1546 1548 1550 1551 1553 1554 1555 1556 1558 1559 1560 1561 1561 1562 1562 1563
1486 1488 1490 1492 1494 1496 1498 1500 1502 1504 1506 1508 1510 1513 1515 1517 1519 1522 1524 1527 1529 1531 1534 1536 1539 1541 1543 1545 1546 1548 1550 1551 1553 1554 1555 1556 1557 1558 1560 1560 1561 1561 1562
1483 1485 1487 1489 1491 1493 1495 1497 1498 1501 1503 1505 1508 1510 1512 1514 1517 1519 1522 1524 1527 1529 1531 1534 1536 1538 1541 1542 1544 1546 1548 1549 1551 1552 1553 1554 1556 1557 1558 1559 1560 1560 1561
1479 1481 1483 1486 1488 1490 1492 1494 1495 1497 1499 1502 1505 1507 1509 1511 1514 1516 1518 1521 1524 1526 1528 1531 1534 1536 1538 1540 1542 1544 1546 1547 1549 1550 1551 1553 1554 1555 1557 1558 1558 1559 1560
1475 1478 1480 1482 1484 1486 1488 1490 1492 1494 1496 1499 1501 1503 1505 1508 1510 1513 1515 1518 1520 1523 1525 1528 1531 1533 1536 1538 1540 1542 1544 1546 1547 1548 1549 1551 1552 1553 1555 1556 1557 1557 1558
1471 1473 1476 1478 1480 1482 1484 1485 1487 1490 1492 1495 1497 1500 1502 1504 1506 1509 1512 1514 1517 1520 1522 1525 1528 1530 1533 1535 1537 1539 1541 1543 1544 1546 1547 1548 1549 1551 1552 1554 1555 1555 1556
1467 1469 1471 1473 1476 1478 1480 1482 1484 1487 1489 1492 1494 1496 1498 1500 1503 1505 1508 1511 1514 1516 1519 1522 1525 1527 1529 1532 1534 1536 1539 1542 1542 1543 1544 1546 1547 1549 1550 1551 1552 1553 1554
1463 1465 1467 1469 1472 1474 1477 1479 1481 1483 1486 1488 1490 1493 1495 1497 1499 1502 1505 1508 1511 1514 1516 1518 1521 1523 1525 1529 1531 1534 1535 1536 1539 1540 1541 1543 1544 1546 1547 1549 1550 1551 1551
1459 1461 1464 1466 1468 1470 1473 1474 1476 1478 1480 1484 1487 1490 1492 1494 1496 1499 1502 1505 1508 1510 1513 1515 1518 1520 1522 1525 1527 1530 1532 1533 1535 1536 1539 1540 1541 1543 1544 1546 1547 1548 1548
1455 1457 1460 1462 1464 1466 1469 1471 1473 1475 1478 1481 1484 1487 1489 1491 1493 1496 1499 1502 1504 1507 1510 1512 1514 1517 1519 1521 1524 1526 1528 1530 1531 1532 1534 1536 1538 1540 1541 1542 1544 1545 1546
1451 1454 1456 1458 1460 1463 1465 1467 1470 1472 1475 1478 1480 1483 1486 1488 1490 1493 1496 1498 1501 1504 1507 1509 1511 1513 1515 1518 1521 1523 1525 1526 1528 1529 1530 1532 1534 1537 1538 1540 1541 1542 1542